Weather History for Moron de la Frontera, Spain

Change the Weather History Date:

Saturday, April 20, 2013

  Actual Average Record
Temperature  
Mean Temperature 70 °F -  
Max Temperature 82 °F 76 °F 82 °F (2013)
Min Temperature 57 °F 52 °F 46 °F (1998)
Cooling Degree Days 4    
Growing Degree Days 20 (Base 50)    
Moisture  
Dew Point 57 °F    
Average Humidity 66    
Maximum Humidity 94    
Minimum Humidity 45    
Precipitation  
Precipitation 0.00 in - - ()
Sea Level Pressure  
Sea Level Pressure 30.04 in    
Wind  
Wind Speed 3 mph ()    
Max Wind Speed 10 mph    
Max Gust Speed -    
Visibility 6.0 miles    
Events      
Averages and records for this station are not official NWS values.
T = Trace of Precipitation, MM = Missing Value Source: Averaged Metar Reports

Daily Weather History Graph

Daily Weather History Graph

Search for Another Location

Airport:

Trip Planner

Search our weather history database for the weather conditions in past years. The results will help you decide how hot, cold, wet, or windy it might be!

Date:

Astronomy

Apr. 20, 2013 Rise Set
Actual Time 7:41 AM CEST 9:01 PM CEST
Civil Twilight 7:14 AM CEST 9:29 PM CEST
Nautical Twilight 6:41 AM CEST 10:01 PM CEST
Astronomical Twilight 6:07 AM CEST 10:35 PM CEST
Moon 3:39 PM CEST (4/20) 4:15 AM CEST (4/20)
Length of Visible Light 14h 15m
Length of Day
13h 20m
Waxing Gibbous, 68% of the Moon is Illuminated
Apr 20
Waxing Gibbous
Apr 25
Full
May 2
Last Quarter
May 10
New
May 18
First Quarter

Hourly Weather History & Observations

Time (CEST) Temp. Heat Index Dew Point Humidity Pressure Visibility Wind Dir Wind Speed Gust Speed Precip Events Conditions
12:00 AM 66.2 °F - 57.2 °F 73% 30.04 in - South 4.6 mph - N/A   Clear
1:00 AM 66.2 °F - 57.2 °F 73% 30.04 in - ESE 2.3 mph - N/A   Clear
2:00 AM 64.4 °F - 57.2 °F 77% 30.04 in - ESE 2.3 mph - N/A   Clear
3:00 AM 62.6 °F - 55.4 °F 77% 30.04 in - Calm Calm - N/A   Clear
4:00 AM 62.6 °F - 55.4 °F 77% 30.04 in - Variable 1.2 mph - N/A   Clear
5:00 AM 59.0 °F - 57.2 °F 94% 30.04 in - Variable 1.2 mph - N/A   Clear
6:00 AM 59.0 °F - 57.2 °F 94% 30.04 in - Calm Calm - N/A   Clear
7:00 AM 57.2 °F - 55.4 °F 94% 30.04 in - Variable 2.3 mph - N/A   Clear
8:00 AM 57.2 °F - 55.4 °F 94% 30.06 in 5.6 mi North 4.6 mph - N/A   Unknown
9:00 AM 62.6 °F - 57.2 °F 82% 30.06 in 5.6 mi ENE 4.6 mph - N/A   Unknown
10:00 AM 68.0 °F - 57.2 °F 68% 30.06 in - East 4.6 mph - N/A   Clear
11:00 AM 71.6 °F - 55.4 °F 57% 30.09 in - Variable 2.3 mph - N/A   Clear
12:00 PM 73.4 °F - 55.4 °F 53% 30.09 in - WSW 3.5 mph - N/A   Clear
1:00 PM 75.2 °F - 55.4 °F 50% 30.09 in - West 3.5 mph - N/A   Clear
2:00 PM 78.8 °F - 57.2 °F 47% 30.06 in - Variable 2.3 mph - N/A   Clear
3:00 PM 78.8 °F - 57.2 °F 47% 30.06 in - Variable 1.2 mph - N/A   Clear
4:00 PM 80.6 °F 80.8 °F 57.2 °F 45% 30.04 in - West 4.6 mph - N/A   Clear
5:00 PM 82.4 °F 82.5 °F 59.0 °F 45% 30.01 in - NNW 3.5 mph - N/A   Clear
6:00 PM 78.8 °F - 59.0 °F 51% 29.98 in 6.2 mi East 6.9 mph - N/A   Partly Cloudy
7:00 PM 78.8 °F - 57.2 °F 47% 29.98 in 6.2 mi ENE 8.1 mph - N/A   Partly Cloudy
8:00 PM 77.0 °F - 57.2 °F 50% 30.01 in 6.2 mi ENE 10.4 mph - N/A   Partly Cloudy
9:00 PM 73.4 °F - 57.2 °F 57% 30.01 in 6.2 mi East 8.1 mph - N/A   Partly Cloudy
10:00 PM 69.8 °F - 57.2 °F 64% 30.04 in - SSE 3.5 mph - N/A   Clear
11:00 PM 66.2 °F - 57.2 °F 73% 30.06 in - West 5.8 mph - N/A   Clear